Location: Le Castellard
(44.1862°N, 6.1301°E)
Time: 19:49:55
(UTC+00:00)

ATLAS 2AS CENTAUR R/B - Pass Details

Date: 18 January 2020
Orbit: 929 x 1283 km, 63.7° (Epoch: 08 February)

Event Time Altitude Azimuth Distance (km) Brightness Sun altitude
Rises 06:04:23 0° 213° (SSW) 4,172 5.6 -11.0°
Reaches altitude 10° 06:07:07 10° 213° (SSW) 3,236 5.1 -10.5°
Maximum altitude 06:15:04 87° 127° (SE) 1,289 3.2 -9.2°
Drops below altitude 10° 06:23:06 10° 37° (NE) 3,267 5.5 -7.8°
Sets 06:25:53 0° 38° (NE) 4,215 6.0 -7.4°
